Terminal Aerodrome Forecast
Issued by NWS Portland, OR

Home | Current Version | Previous Version | Text Only | Print | Product List | Glossary On
Versions: 1 2 3 4 5 6 7 8 9 10 11 12 13 14 15 16 17 18 19 20 21 22 23 24 25 26 27 28 29 30 31 32 33 34 35
000
FTUS46 KPQR 132340
TAFEUG
TAF
KEUG 132340Z 1400/1424 24009KT P6SM BKN022 BKN070 BKN150
     FM140600 23006KT P6SM BKN011 BKN022
     FM141800 30005KT P6SM BKN020
     FM142200 35009KT P6SM SKC=

USA.gov is the U.S. government's official web portal to all federal, state and local government web resources and services.